Header for Extended Forecast Station List Page

Search by: ID | Name | Date | Parm | Value | Avg | % Avg
Sort by: ID | Name | Date | Parm | Value | Avg | % Avg

Enter search or view all records.

Click on id for station plot
#IDNameDateParmValueAvg% Avg
0HWRI1BIG LOST-AT HOWELL RANCH NEAR CHILLY12-15-2014DISCHARGE (KAF)121964
1MACI1BIG LOST-MACKAY RESERVOIR NEAR MACKAY12-15-2014INFLOW (KAF)226384
2HALI1BIG WOOD-AT HAILEY12-15-2014DISCHARGE (KAF)344183
3MAGI1BIG WOOD-MAGIC DAM12-15-2014INFLOW (KAF)466570
4BITM8BITTERROOT-NEAR MISSOULA12-15-2014DISCHARGE (KAF)23824597
5BONM8BLACKFOOT-NEAR BONNER12-15-2014DISCHARGE (KAF)14215194
6BIGI1BOISE-AT GLENWOOD BRIDGE12-15-2014DISCHARGE (KAF)17963283
7LUCI1BOISE-LUCKY PEAK DAM12-15-2014INFLOW (KAF)388MM
8PARI1BOISE-NEAR PARMA12-15-2014DISCHARGE (KAF)339235144
9HOTI1BRUNEAU-NEAR HOT SPRINGS12-15-2014DISCHARGE (KAF)274955
10BULO3BULLY CREEK-BULLY CREEK DAM12-15-2014INFLOW (KAF)219235
11BUDW1BUMPING-BUMPING LAKE DAM12-15-2014INFLOW (KAF)323886
12CHDW1CHELAN-LAKE CHELAN DAM12-15-2014INFLOW (KAF)245186131
13ABOM8CLARK FORK-ABOVE MISSOULA12-15-2014DISCHARGE (KAF)35736897
14DLGM8CLARK FORK-AT DEER LODGE12-15-2014DISCHARGE (KAF)576391
15SRGM8CLARK FORK-AT ST REGIS12-15-2014DISCHARGE (KAF)77784492
16BELM8CLARK FORK-BELOW MISSOULA12-15-2014DISCHARGE (KAF)59561896
17CABI1CLARK FORK-CABINET GORGE DAM12-15-2014INFLOW (KAF)3331395984
18NOXM8CLARK FORK-NOXON RAPIDS DAM12-15-2014INFLOW (KAF)3007378579
19DRMM8CLARK FORK-NR DRUMMOND12-15-2014DISCHARGE (KAF)144MM
20CLUW1CLE ELUM-CLE ELUM LAKE12-15-2014INFLOW (KAF)10411591
21ORFI1CLEARWATER-AT OROFINO12-15-2014DISCHARGE (KAF)1070116792
22SPDI1CLEARWATER-AT SPALDING12-15-2014DISCHARGE (KAF)24812417103
23COEI1COEUR D ALENE-COEUR D ALENE LAKE12-15-2014INFLOW (KAF)1139137683
24CIBW1COLUMBIA-AT INTL BOUNDARY12-15-2014DISCHARGE (KAF)19380MM
25BONO3COLUMBIA-BONNEVILLE DAM12-15-2014INFLOW (KAF)38087MM
26CHJW1COLUMBIA-CHIEF JOSEPH DAM12-15-2014INFLOW (KAF)2414722975105
27GCDW1COLUMBIA-GRAND COULEE DAM12-15-2014INFLOW (KAF)2106717085123
28JDAO3COLUMBIA-JOHN DAY DAM12-15-2014INFLOW (KAF)3627335282103
29MCDW1COLUMBIA-MCNARY DAM12-15-2014INFLOW (KAF)3451233434103
30PRWW1COLUMBIA-PRIEST RAPIDS DAM12-15-2014INFLOW (KAF)2553521365120
31RRHW1COLUMBIA-ROCKY REACH DAM12-15-2014INFLOW (KAF)2506823937105
32TDAO3COLUMBIA-THE DALLES DAM12-15-2014INFLOW (KAF)369933928194
33WANW1COLUMBIA-WANAPUM DAM12-15-2014INFLOW (KAF)2553221066121
34WELW1COLUMBIA-WELLS DAM12-15-2014INFLOW (KAF)2450723374105
35DEDI1DEADWOOD-NEAR LOWMAN12-15-2014INFLOW (KAF)162177
36MODO3DESCHUTES-AT MOODY NR BIGGS12-15-2014DISCHARGE (KAF)1560157999
37ARDW1ENTIAT-NEAR ARDENVOIR12-15-2014DISCHARGE (KAF)3625141
38CHEI1FALL RIVER-NEAR CHESTER12-15-2014DISCHARGE (KAF)122110111
39CFMM8FLATHEAD-AT COLUMBIA FALLS12-15-2014DISCHARGE (KAF)1067118190
40KERM8FLATHEAD-KERR DAM12-15-2014INFLOW (KAF)1286155483
41TRYO3GRANDE RONDE-TROY12-15-2014DISCHARGE (KAF)41459270
42REXI1HENRYS FORK-AT REXBURG12-15-2014DISCHARGE (KAF)36743485
43ANTI1HENRYS FORK-AT ST. ANTHONY12-15-2014DISCHARGE (KAF)29135083
44IPDI1HENRYS FORK-ISLAND PARK DAM12-15-2014INFLOW (KAF)7911171
45HODO3HOOD-NEAR TUCKER BRIDGE12-15-2014DISCHARGE (KAF)333280119
46SERO3JOHN DAY-AT SERVICE CK12-15-2014DISCHARGE (KAF)38248778
47KADW1KACHESS-KACHESS DAM12-15-2014INFLOW (KAF)505297
48LAUW1KETTLE-AT LAURIER12-15-2014DISCHARGE (KAF)221185119
49PITW1KLICKITAT-NEAR PITT12-15-2014DISCHARGE (KAF)444415107
50BFEI1KOOTENAI-AT BONNERS FERRY12-15-2014STAGE (FT)MMM
51LEOI1KOOTENAI-AT LEONIA12-15-2014DISCHARGE (KAF)20201343150
52LYDM8KOOTENAI-LIBBY DAM12-15-2014INFLOW (KAF)946804118
53LWRI1LITTLE WOOD-LITTLE WOOD DAM12-15-2014INFLOW (KAF)152169
54BERO3MALHEUR-AGENCY VALLEY DAM12-15-2014INFLOW (KAF)333595
55VALO3MALHEUR-NEAR VALE12-15-2014DISCHARGE (KAF)144630
56WRMO3MALHEUR-WARM SPRINGS DAM12-15-2014INFLOW (KAF)6964108
57MYKO3MCKAY CREEK-NEAR PILOT ROCK12-15-2014DISCHARGE (KAF)7336204
58PATW1METHOW-NEAR PATEROS12-15-2014DISCHARGE (KAF)11011397
59WGCM8MF FLATHEAD-NEAR WEST GLACIER12-15-2014DISCHARGE (KAF)185166112
60CLFW1NACHES-NEAR CLIFFDEL12-15-2014DISCHARGE (KAF)11914284
61NACW1NACHES-NEAR NACHES12-15-2014DISCHARGE (KAF)173135128
62DWRI1NF CLEARWATER-DWORSHAK DAM12-15-2014INFLOW (KAF)86992094
63FCFM8NF FLATHEAD-NEAR COLUMBIA FALLS12-15-2014DISCHARGE (KAF)218184119
64MONO3NF JOHN DAY-AT MONUMENT12-15-2014DISCHARGE (KAF)22530674
65CSDI1NF PAYETTE-CASCADE DAM12-15-2014INFLOW (KAF)10012679
66TONW1OKANOGAN-NEAR TONASKET12-15-2014DISCHARGE (KAF)24430680
67OWYO3OWYHEE-BELOW OWYHEE DAM12-15-2014INFLOW (KAF)20121892
68EMMI1PAYETTE-NEAR EMMETT12-15-2014DISCHARGE (KAF)38250476
69ALFW1PEND OREILLE-ALBENI FALLS DAM12-15-2014INFLOW (KAF)3669472078
70HOPI1PEND OREILLE-PEND OREILLE LAKE NR HOPE12-15-2014LAKE ELEVATION (FT)MMM
71PIHI1PORTNEUF-AT POCATELLO12-15-2014DISCHARGE (KAF)467958
72PRTI1PRIEST-NEAR PRIEST RIVER12-15-2014DISCHARGE (KAF)267242110
73RCCM8ROCK CREEK-NEAR CLINTON12-15-2014DISCHARGE (KAF)5747121
74WHBI1SALMON-AT WHITEBIRD12-15-2014DISCHARGE (KAF)1100116295
75ARAI1SF BOISE-ANDERSON RANCH DAM12-15-2014INFLOW (KAF)10211688
76HHWM8SF FLATHEAD-HUNGRY HORSE DAM12-15-2014INFLOW (KAF)23027484
77PLDI1SF SNAKE-PALISADES DAM12-15-2014INFLOW (KAF)652621105
78SIFI1SNAKE-AB EAGLE ROCK NR IDAHO FALLS12-15-2014DISCHARGE (KAF)59483771
79AFRI1SNAKE-AMERICAN FALLS RESERVOIR12-15-2014INFLOW (KAF)1156154975
80SNAI1SNAKE-AT BLACKFOOT12-15-2014DISCHARGE (KAF)48677563
81MILI1SNAKE-AT MILNER12-15-2014DISCHARGE (KAF)267673
82WEII1SNAKE-AT WEISER12-15-2014DISCHARGE (KAF)2863432066
83SWAI1SNAKE-BELOW SWAN FALLS12-15-2014DISCHARGE (KAF)1680272162
84BRNI1SNAKE-BROWNLEE DAM12-15-2014INFLOW (KAF)3169455770
85IHDW1SNAKE-ICE HARBOR DAM12-15-2014INFLOW (KAF)8064990781
86JLKW4SNAKE-JACKSON LAKE AT DAM12-15-2014INFLOW (KAF)10611990
87LGSW1SNAKE-LITTLE GOOSE DAM12-15-2014INFLOW (KAF)7728972679
88LGDW1SNAKE-LOWER GRANITE DAM12-15-2014INFLOW (KAF)7730966780
89LMNW1SNAKE-LOWER MONUMENTAL DAM12-15-2014INFLOW (KAF)8064998981
90ALPW4SNAKE-NEAR ALPINE12-15-2014DISCHARGE (KAF)433382113
91ANAW1SNAKE-NEAR ANATONE12-15-2014DISCHARGE (KAF)5249709974
92BFTI1SNAKE-NEAR BLACKFOOT12-15-2014DISCHARGE (KAF)48482659
93HEII1SNAKE-NEAR HEISE12-15-2014DISCHARGE (KAF)40558769
94JKSW4SNAKE-NEAR JACKSON12-15-2014DISCHARGE (KAF)346309112
95SHYI1SNAKE-NEAR SHELLEY12-15-2014DISCHARGE (KAF)57085367
96LLKW1SPOKANE-AT LONGLAKE12-15-2014INFLOW (KAF)1368185074
97SPOW1SPOKANE-AT SPOKANE12-15-2014DISCHARGE (KAF)1092MM
98SJMI1ST JOE-AT ST MARIES12-15-2014STAGE (FT)MMM
99SATI1ST MARIES-NEAR SANTA12-15-2014DISCHARGE (KAF)608272
100STRM8ST. REGIS-NEAR ST. REGIS12-15-2014DISCHARGE (KAF)396560
101TNAW1TEANAWAY-BELOW FORKS12-15-2014DISCHARGE (KAF)627583
102TEAI1TETON-NEAR ST. ANTHONY12-15-2014DISCHARGE (KAF)10010199
103RILW1TIETON-RIMROCK LAKE NEAR RIMROCK12-15-2014INFLOW (KAF)677787
104PDTO3UMATILLA-AT PENDLETON12-15-2014DISCHARGE (KAF)186155120
105GIBO3UMATILLA-NEAR GIBBON12-15-2014DISCHARGE (KAF)6659111
106UMAO3UMATILLA-NEAR UMATILLA12-15-2014DISCHARGE (KAF)205157130
107TCHW1WALLA WALLA-NEAR TOUCHET12-15-2014DISCHARGE (KAF)225204111
108WSRI1WEISER-NEAR WEISER12-15-2014DISCHARGE (KAF)318229139
109PESW1WENATCHEE-AT PESHASTIN12-15-2014DISCHARGE (KAF)384349110
110UNDW1WHITE SALMON-NEAR UNDERWOOD12-15-2014DISCHARGE (KAF)326318102
111RIDI1WILLOW CREEK-RIRIE DAM12-15-2014INFLOW (KAF)121388
112EASW1YAKIMA-AT EASTON12-15-2014DISCHARGE (KAF)9987114
113KIOW1YAKIMA-AT KIONA12-15-2014DISCHARGE (KAF)70788380
114UMTW1YAKIMA-AT UMTANUM12-15-2014DISCHARGE (KAF)364362101
115KEDW1YAKIMA-KEECHELUS LAKE12-15-2014INFLOW (KAF)5352103
116PARW1YAKIMA-NEAR PARKER12-15-2014DISCHARGE (KAF)51059087